Weather reports worldwide

Advertisment
Spadeadam, United Kingdom (3224): temperature & dewpoint: 16.05.2018 16:00:00 - 22.05.2018 16:00:00 (BST)Spadeadam, United Kingdom (3224): temperature -20cm: 16.05.2018 16:00:00 - 22.05.2018 16:00:00 (BST)Spadeadam, United Kingdom (3224): wind speed: 16.05.2018 16:00:00 - 22.05.2018 16:00:00 (BST)Spadeadam, United Kingdom (3224): wind direction: 16.05.2018 16:00:00 - 22.05.2018 16:00:00 (BST)Spadeadam, United Kingdom (3224): reduced air pressure: 16.05.2018 16:00:00 - 22.05.2018 16:00:00 (BST)Spadeadam, United Kingdom (3224): visibility: 16.05.2018 16:00:00 - 22.05.2018 16:00:00 (BST)Spadeadam, United Kingdom (3224): precipitation: 16.05.2018 16:00:00 - 22.05.2018 16:00:00 (BST)
Date & Time tt [°C] td [°C] tt -20cm [°C] ff [km/h] ff [kn] dd ppp [hPa] vv [km] rr [mm]
22.05.2018 16:00:00 12,7 6,6 - 16 9 NNE 1023,2 10 0,0
22.05.2018 15:00:00 13,6 7,1 - 18 10 NE 1022,8 50 0,0
22.05.2018 14:00:00 13,2 6,7 - 21 11 NE 1022,9 40 0,0
22.05.2018 13:00:00 12,1 6,6 - 24 13 ENE 1022,8 10 0,0
22.05.2018 12:00:00 10,9 6,7 - 26 14 NNE 1023,0 10 0,0
22.05.2018 11:00:00 9,9 6,6 - 18 10 NE 1022,9 10 0,0
22.05.2018 10:00:00 9,0 6,0 - 21 11 NE - 10 0,0
22.05.2018 09:00:00 8,4 6,3 - 24 13 NE 1023,0 10 0,0
22.05.2018 08:00:00 7,7 6,2 - 22 12 NE 1022,6 35 0,0
22.05.2018 07:00:00 7,0 6,1 - 22 12 NE 1022,4 10 0,0
22.05.2018 06:00:00 6,9 5,9 - 18 10 NE 1021,9 10 0,0
22.05.2018 05:00:00 7,1 6,1 - 24 13 NE 1021,3 10 0,0
22.05.2018 04:00:00 7,4 6,2 - 26 14 ENE 1021,0 10 0,0
22.05.2018 03:00:00 7,7 6,7 - 24 13 ENE 1021,1 10 0,0
22.05.2018 02:00:00 8,9 7,4 - 26 14 NE 1020,6 10 0,0
22.05.2018 01:00:00 10,1 7,9 - 24 13 NNE 1019,5 11 0,0
22.05.2018 00:00:00 12,2 9,3 - 24 13 NNE 1019,0 35 0,0
21.05.2018 23:00:00 10,3 9,0 - 8 4 NNW 1019,1 10 0,0
21.05.2018 22:00:00 11,3 8,4 - 11 6 W 1018,9 25 0,0
21.05.2018 21:00:00 14,2 9,7 - 9 5 W 1018,2 10 0,0
21.05.2018 20:00:00 16,1 9,9 - 13 7 W 1017,6 45 0,0
21.05.2018 19:00:00 17,4 8,4 - 21 11 W 1017,3 10 0,0
21.05.2018 18:00:00 18,2 9,5 - 22 12 W 1017,1 10 0,0
21.05.2018 17:00:00 19,5 8,0 - 22 12 W 1016,8 10 0,0
21.05.2018 16:00:00 20,0 7,9 - 18 10 W 1016,8 10 0,0
21.05.2018 15:00:00 20,8 8,1 - 18 10 W 1016,8 10 0,0
21.05.2018 14:00:00 19,2 8,3 - 11 6 WSW 1017,0 10 0,0
21.05.2018 13:00:00 19,9 8,2 - 13 7 WSW 1016,9 10 0,0
21.05.2018 12:00:00 20,4 10,1 - 11 6 SSW 1017,1 10 0,0
21.05.2018 11:00:00 19,4 11,3 - 9 5 WSW 1017,4 10 0,0
21.05.2018 10:00:00 16,9 9,4 11,0 9 5 SSE 1017,9 10 0,0
21.05.2018 09:00:00 15,4 8,7 - 5 3 S 1018,2 10 0,0
21.05.2018 08:00:00 14,0 8,4 - 8 4 SW 1018,4 10 0,0
21.05.2018 07:00:00 11,0 8,5 - 2 1 SE 1018,5 10 0,0
21.05.2018 06:00:00 7,3 4,8 - 5 3 NE 1018,9 10 0,0
21.05.2018 05:00:00 7,1 4,5 - 5 3 NE 1018,7 10 0,0
21.05.2018 04:00:00 7,5 5,1 - 5 3 N 1018,9 10 0,0
21.05.2018 03:00:00 7,4 3,9 - 5 3 ESE 1019,0 10 0,0
21.05.2018 02:00:00 8,0 3,9 - 5 3 NNE 1019,4 10 0,0
21.05.2018 01:00:00 8,4 4,7 - 5 3 N 1019,7 50 0,0
21.05.2018 00:00:00 9,6 5,5 - 5 3 ENE 1019,9 10 0,0
20.05.2018 23:00:00 10,4 4,6 - 2 1 NE 1019,6 10 0,0
20.05.2018 22:00:00 11,1 4,3 - 8 4 WNW 1019,4 10 0,0
20.05.2018 21:00:00 12,6 5,9 - 13 7 W 1019,1 10 0,0
20.05.2018 20:00:00 13,7 6,5 - 15 8 WNW 1018,8 40 0,0
20.05.2018 19:00:00 14,4 6,7 - 9 5 WNW 1019,0 10 0,0
20.05.2018 18:00:00 14,7 7,5 - 16 9 W 1019,0 40 0,0
20.05.2018 17:00:00 15,9 7,6 - 18 10 W 1019,0 10 0,0
20.05.2018 16:00:00 17,9 6,1 - 26 14 SW 1019,0 10 0,0
20.05.2018 15:00:00 17,6 5,6 - 24 13 SW 1019,5 10 0,0
20.05.2018 14:00:00 17,2 6,3 - 26 14 SSW 1019,6 30 0,0
20.05.2018 13:00:00 16,7 7,3 - 24 13 SSW 1019,9 40 0,0
20.05.2018 12:00:00 16,1 6,5 - 24 13 SSW 1020,1 10 0,0
20.05.2018 11:00:00 14,8 6,3 - 29 16 SW 1020,2 35 0,0
20.05.2018 10:00:00 14,2 5,9 11,2 24 13 SW 1020,4 40 0,0
20.05.2018 09:00:00 13,1 5,7 - 21 11 SW 1020,4 30 0,0
20.05.2018 08:00:00 13,5 7,1 - 21 11 SSW 1020,1 10 0,0
20.05.2018 07:00:00 10,8 5,6 - 11 6 S 1020,4 45 0,0
20.05.2018 06:00:00 8,6 4,6 - 5 3 SSE 1020,6 10 0,0
20.05.2018 05:00:00 6,8 3,3 - 13 7 SSW 1020,9 30 0,0
20.05.2018 04:00:00 7,9 3,6 - 15 8 WSW 1020,7 45 0,0
20.05.2018 03:00:00 6,6 2,5 - 13 7 SW 1020,9 10 0,0
20.05.2018 02:00:00 8,2 3,9 - 18 10 SSW 1021,0 10 0,0
20.05.2018 01:00:00 8,1 4,2 - 15 8 SW 1021,1 10 0,0
20.05.2018 00:00:00 8,7 4,6 - 15 8 SSW 1021,0 30 0,0
19.05.2018 23:00:00 9,2 5,0 - 8 4 SSW 1021,2 10 0,0
19.05.2018 22:00:00 9,1 4,3 - 9 5 SW 1021,4 10 0,0
19.05.2018 21:00:00 10,1 4,8 - 13 7 W 1021,0 10 0,0
19.05.2018 20:00:00 12,5 5,1 - 15 8 W 1021,0 10 0,0
19.05.2018 19:00:00 13,9 4,7 - 18 10 W 1020,9 40 0,0
19.05.2018 18:00:00 15,6 4,4 - 21 11 W 1020,8 10 0,0
19.05.2018 17:00:00 16,4 5,1 - 26 14 WNW 1020,7 45 0,0
19.05.2018 16:00:00 19,3 8,9 - 21 11 SW 1020,3 10 0,0
19.05.2018 15:00:00 18,7 6,4 - 21 11 SSW 1020,8 10 0,0
19.05.2018 14:00:00 19,2 8,2 - 15 8 SSW 1021,0 10 0,0
19.05.2018 13:00:00 16,9 5,1 - 11 6 WSW 1021,9 10 0,0
19.05.2018 12:00:00 16,5 4,7 - 16 9 W 1022,6 10 0,0
19.05.2018 11:00:00 15,5 4,8 - 13 7 SW 1022,7 10 0,0
19.05.2018 10:00:00 14,9 4,7 10,7 9 5 SW 1023,1 10 0,0
19.05.2018 09:00:00 13,3 5,8 - 5 3 SSW 1023,3 10 0,0
19.05.2018 08:00:00 11,6 6,5 - 5 3 W 1023,8 10 0,0
19.05.2018 07:00:00 8,8 6,5 - 5 3 W 1023,7 10 0,0
19.05.2018 06:00:00 4,9 3,5 - 9 5 WNW 1024,2 10 0,0
19.05.2018 05:00:00 3,6 2,1 - 11 6 WNW 1024,2 10 0,0
19.05.2018 04:00:00 4,0 2,1 - 5 3 WNW 1024,3 10 0,0
19.05.2018 03:00:00 5,0 3,1 - 5 3 N 1024,5 10 0,0
19.05.2018 02:00:00 5,2 4,3 - 4 2 N 1024,6 10 0,0
19.05.2018 01:00:00 4,4 2,2 - 5 3 SSE 1024,9 8 0,0
19.05.2018 00:00:00 6,7 4,2 - 2 1 W 1024,9 10 0,0
18.05.2018 23:00:00 6,3 3,8 - 8 4 WNW 1025,2 10 0,0
18.05.2018 22:00:00 7,6 3,8 - 13 7 W 1025,1 10 0,0
18.05.2018 21:00:00 10,2 4,7 - 11 6 W 1024,4 30 0,0
18.05.2018 20:00:00 13,2 3,6 - 15 8 W 1023,7 10 0,0
18.05.2018 19:00:00 14,4 1,7 - 15 8 WNW 1023,5 50 0,0
18.05.2018 18:00:00 13,9 2,4 - 18 10 W 1023,8 10 0,0
18.05.2018 17:00:00 14,8 4,4 - 18 10 W 1023,7 40 0,0
18.05.2018 16:00:00 16,0 4,4 - 13 7 W 1023,6 40 0,0
18.05.2018 15:00:00 15,4 1,2 - 16 9 W 1023,8 10 0,0
18.05.2018 14:00:00 15,7 2,2 - 16 9 W 1024,0 30 0,0
18.05.2018 13:00:00 15,0 3,4 - 15 8 W 1024,3 10 0,0
18.05.2018 12:00:00 13,6 4,2 - 18 10 WNW 1024,8 10 0,0
18.05.2018 11:00:00 12,6 4,5 - 16 9 W 1025,1 10 0,0
18.05.2018 10:00:00 12,4 4,2 10,7 15 8 WNW 1025,3 10 0,0
18.05.2018 09:00:00 10,3 4,3 - 13 7 W 1025,8 10 0,0
18.05.2018 08:00:00 9,2 4,7 - 9 5 W 1025,8 10 0,0
18.05.2018 07:00:00 5,9 4,0 - 0 0 N 1026,0 10 0,0
18.05.2018 06:00:00 3,4 1,4 - 4 2 ENE 1026,4 10 0,0
18.05.2018 05:00:00 2,6 1,0 - 5 3 NNE 1026,7 10 0,0
18.05.2018 04:00:00 1,6 -0,1 - 8 4 NNE 1027,0 10 0,0
18.05.2018 03:00:00 3,4 1,5 - 5 3 NNE 1027,1 10 0,0
18.05.2018 02:00:00 1,8 0,0 - 9 5 NNE 1027,6 10 0,0
18.05.2018 01:00:00 3,6 1,4 - 5 3 NNE 1027,9 10 0,0
18.05.2018 00:00:00 3,8 1,5 - 5 3 NE 1028,3 10 0,0
17.05.2018 23:00:00 4,8 1,9 - 11 6 ENE 1028,3 10 0,0
17.05.2018 22:00:00 5,9 2,3 - 13 7 ENE 1028,5 10 0,0
17.05.2018 21:00:00 8,3 3,0 - 13 7 E 1027,9 10 0,0
17.05.2018 20:00:00 10,5 3,8 - 13 7 ESE 1027,5 10 0,0
17.05.2018 19:00:00 12,1 4,4 - 18 10 SE 1027,5 10 0,0
17.05.2018 18:00:00 12,6 4,7 - 18 10 SE 1027,2 45 0,0
17.05.2018 17:00:00 13,4 4,3 - 11 6 ESE 1027,4 10 0,0
17.05.2018 16:00:00 14,5 4,3 - 13 7 SE 1027,6 35 0,0
17.05.2018 15:00:00 13,5 3,4 - 13 7 E 1028,1 10 0,0
17.05.2018 14:00:00 13,4 4,0 - 13 7 ESE 1028,6 10 0,0
17.05.2018 13:00:00 12,8 3,3 - 9 5 NE 1029,1 10 0,0
17.05.2018 12:00:00 11,7 3,4 - 11 6 NNE 1029,4 10 0,0
17.05.2018 11:00:00 11,0 2,6 - 8 4 ENE 1029,9 10 0,0
17.05.2018 10:00:00 10,1 2,4 10,9 9 5 NE 1030,2 10 0,0
17.05.2018 09:00:00 8,9 1,4 - 16 9 ENE 1030,3 10 0,0
17.05.2018 08:00:00 7,4 2,2 - 11 6 NE 1030,5 10 0,0
17.05.2018 07:00:00 5,0 1,8 - 5 3 NE 1030,9 10 0,0
17.05.2018 06:00:00 2,1 -0,2 - 8 4 NNE 1031,2 10 0,0
17.05.2018 05:00:00 1,9 -0,9 - 11 6 N 1031,4 10 0,0
17.05.2018 04:00:00 2,0 -0,7 - 5 3 NNE 1031,5 10 0,0
17.05.2018 03:00:00 1,8 -0,5 - 9 5 N 1032,0 10 0,0
17.05.2018 02:00:00 1,0 -1,0 - 8 4 NE 1032,2 10 0,0
17.05.2018 01:00:00 2,8 0,0 - 5 3 NE 1032,1 10 0,0
17.05.2018 00:00:00 3,3 0,3 - 5 3 NE 1032,0 10 0,0
16.05.2018 23:00:00 3,8 0,3 - 9 5 NE 1032,2 10 0,0
16.05.2018 22:00:00 4,8 0,2 - 11 6 ENE 1032,0 10 0,0
16.05.2018 21:00:00 7,0 1,1 - 15 8 ENE 1031,4 40 0,0
16.05.2018 20:00:00 9,5 2,3 - 21 11 E 1030,9 40 0,0
16.05.2018 19:00:00 10,9 2,5 - 18 10 ENE 1030,6 10 0,0
16.05.2018 18:00:00 11,2 2,5 - 21 11 NE 1030,6 10 0,0
16.05.2018 17:00:00 11,6 2,2 - 24 13 ENE 1030,5 45 0,0
16.05.2018 16:00:00 11,6 1,9 - 26 14 ENE 1030,8 10 0,0

tt = temperature
td = dewpoint
tt -20cm = temperature -20cm
ff = wind speed
dd = wind direction
ppp = reduced air pressure
vv = visibility
rr = precipitation

Next stations